Time,TemperatureF,DewpointF,PressureIn,WindDirection,WindDirectionDegrees,WindSpeedMPH,WindSpeedGustMPH,Humidity,HourlyPrecipIn,Conditions,Clouds,dailyrainin,SoftwareType,DateUTC
2013-05-14 00:14:00,45.0,34.0,30.11,NE,43,0.0,6.0,65,0.00,,,0.00,weatherlink.com 1.10,2013-05-14 04:14:00,
2013-05-14 00:29:00,44.8,34.0,30.11,NE,45,2.0,5.0,66,0.00,,,0.00,weatherlink.com 1.10,2013-05-14 04:29:00,
2013-05-14 00:44:00,44.5,34.0,30.11,NNE,32,1.0,3.0,67,0.00,,,0.00,weatherlink.com 1.10,2013-05-14 04:44:00,
2013-05-14 00:59:00,44.2,34.0,30.11,NNW,335,0.0,6.0,68,0.00,,,0.00,weatherlink.com 1.10,2013-05-14 04:59:00,
2013-05-14 01:14:00,44.0,34.0,30.11,NNE,23,0.0,3.0,68,0.00,,,0.00,weatherlink.com 1.10,2013-05-14 05:14:00,
2013-05-14 01:29:00,43.7,34.0,30.10,North,1,1.0,3.0,69,0.00,,,0.00,weatherlink.com 1.10,2013-05-14 05:29:00,
2013-05-14 01:44:00,43.5,34.0,30.11,North,349,1.0,5.0,69,0.00,,,0.00,weatherlink.com 1.10,2013-05-14 05:44:00,
2013-05-14 01:59:00,43.3,34.0,30.10,NNW,328,0.0,3.0,70,0.00,,,0.00,weatherlink.com 1.10,2013-05-14 05:59:00,
2013-05-14 02:14:00,43.1,34.0,30.10,NNW,330,2.0,3.0,71,0.00,,,0.00,weatherlink.com 1.10,2013-05-14 06:14:00,
2013-05-14 02:29:00,43.0,34.0,30.10,NW,311,2.0,3.0,71,0.00,,,0.00,weatherlink.com 1.10,2013-05-14 06:29:00,
2013-05-14 02:44:00,42.9,34.0,30.10,NE,46,0.0,3.0,71,0.00,,,0.00,weatherlink.com 1.10,2013-05-14 06:44:00,
2013-05-14 02:59:00,42.8,34.0,30.11,NNW,347,0.0,3.0,71,0.00,,,0.00,weatherlink.com 1.10,2013-05-14 06:59:00,
2013-05-14 03:14:00,42.7,34.0,30.11,North,360,2.0,4.0,71,0.00,,,0.00,weatherlink.com 1.10,2013-05-14 07:14:00,
2013-05-14 03:29:00,42.6,34.0,30.11,NNW,335,0.0,4.0,71,0.00,,,0.00,weatherlink.com 1.10,2013-05-14 07:29:00,
2013-05-14 03:44:00,42.5,34.0,30.10,NNW,340,1.0,3.0,71,0.00,,,0.00,weatherlink.com 1.10,2013-05-14 07:44:00,
2013-05-14 03:59:00,42.3,33.0,30.11,North,352,0.0,4.0,70,0.00,,,0.00,weatherlink.com 1.10,2013-05-14 07:59:00,
2013-05-14 04:14:00,42.2,33.0,30.10,North,356,2.0,4.0,70,0.00,,,0.00,weatherlink.com 1.10,2013-05-14 08:14:00,
2013-05-14 04:29:00,42.0,33.0,30.10,NE,55,0.0,3.0,70,0.00,,,0.00,weatherlink.com 1.10,2013-05-14 08:29:00,
2013-05-14 04:44:00,41.9,32.0,30.10,NNE,23,2.0,4.0,69,0.00,,,0.00,weatherlink.com 1.10,2013-05-14 08:44:00,
2013-05-14 04:59:00,41.8,32.0,30.10,North,355,2.0,4.0,68,0.00,,,0.00,weatherlink.com 1.10,2013-05-14 08:59:00,
2013-05-14 05:14:00,41.9,32.0,30.10,NW,326,2.0,7.0,67,0.00,,,0.00,weatherlink.com 1.10,2013-05-14 09:14:00,
2013-05-14 05:29:00,41.8,32.0,30.10,NNW,335,0.0,3.0,67,0.00,,,0.00,weatherlink.com 1.10,2013-05-14 09:29:00,
2013-05-14 05:44:00,41.6,31.0,30.11,NNE,13,0.0,4.0,67,0.00,,,0.00,weatherlink.com 1.10,2013-05-14 09:44:00,
2013-05-14 05:59:00,41.5,32.0,30.11,NE,39,0.0,3.0,68,0.00,,,0.00,weatherlink.com 1.10,2013-05-14 09:59:00,
2013-05-14 06:14:00,41.8,32.0,30.11,North,354,0.0,4.0,67,0.00,,,0.00,weatherlink.com 1.10,2013-05-14 10:14:00,
2013-05-14 06:30:00,42.3,32.0,30.12,NNE,22,0.0,2.0,66,0.00,,,0.00,weatherlink.com 1.10,2013-05-14 10:30:00,
2013-05-14 06:45:00,42.9,32.0,30.12,NE,41,0.0,2.0,65,0.00,,,0.00,weatherlink.com 1.10,2013-05-14 10:45:00,
2013-05-14 07:00:00,43.8,32.0,30.12,NE,34,2.0,3.0,63,0.00,,,0.00,weatherlink.com 1.10,2013-05-14 11:00:00,
2013-05-14 07:15:00,44.7,32.0,30.12,NNW,330,2.0,3.0,61,0.00,,,0.00,weatherlink.com 1.10,2013-05-14 11:15:00,
2013-05-14 07:30:00,45.4,32.0,30.12,NNE,21,4.0,9.0,59,0.00,,,0.00,weatherlink.com 1.10,2013-05-14 11:30:00,
2013-05-14 07:45:00,46.2,32.0,30.12,North,351,1.0,8.0,58,0.00,,,0.00,weatherlink.com 1.10,2013-05-14 11:45:00,
2013-05-14 08:00:00,47.3,33.0,30.12,NNW,338,2.0,5.0,57,0.00,,,0.00,weatherlink.com 1.10,2013-05-14 12:00:00,
2013-05-14 08:15:00,48.1,32.0,30.13,North,360,3.0,6.0,54,0.00,,,0.00,weatherlink.com 1.10,2013-05-14 12:15:00,
2013-05-14 08:31:00,49.2,32.0,30.12,NE,40,1.0,5.0,51,0.00,,,0.00,weatherlink.com 1.10,2013-05-14 12:31:00,
2013-05-14 08:46:00,50.3,31.0,30.12,NW,319,5.0,7.0,48,0.00,,,0.00,weatherlink.com 1.10,2013-05-14 12:46:00,
2013-05-14 09:01:00,51.2,31.0,30.12,NE,56,5.0,6.0,46,0.00,,,0.00,weatherlink.com 1.10,2013-05-14 13:01:00,
2013-05-14 09:16:00,51.8,31.0,30.12,WNW,293,2.0,8.0,45,0.00,,,0.00,weatherlink.com 1.10,2013-05-14 13:16:00,
2013-05-14 09:31:00,53.1,30.0,30.12,NE,37,7.0,8.0,42,0.00,,,0.00,weatherlink.com 1.10,2013-05-14 13:31:00,
2013-05-14 09:46:00,54.1,30.0,30.12,NNE,17,3.0,9.0,40,0.00,,,0.00,weatherlink.com 1.10,2013-05-14 13:46:00,
2013-05-14 10:01:00,54.7,30.0,30.11,NE,40,1.0,9.0,39,0.00,,,0.00,weatherlink.com 1.10,2013-05-14 14:01:00,
2013-05-14 10:16:00,55.9,29.0,30.11,ESE,116,1.0,5.0,36,0.00,,,0.00,weatherlink.com 1.10,2013-05-14 14:16:00,
2013-05-14 10:31:00,55.9,28.0,30.11,North,8,4.0,8.0,34,0.00,,,0.00,weatherlink.com 1.10,2013-05-14 14:31:00,
2013-05-14 10:46:00,56.5,30.0,30.11,NNW,342,5.0,7.0,36,0.00,,,0.00,weatherlink.com 1.10,2013-05-14 14:46:00,
2013-05-14 11:01:00,57.0,27.0,30.11,NNE,14,2.0,9.0,32,0.00,,,0.00,weatherlink.com 1.10,2013-05-14 15:01:00,
2013-05-14 11:16:00,57.6,28.0,30.10,SE,143,1.0,8.0,32,0.00,,,0.00,weatherlink.com 1.10,2013-05-14 15:16:00,
2013-05-14 11:31:00,58.2,27.0,30.10,NE,41,4.0,6.0,30,0.00,,,0.00,weatherlink.com 1.10,2013-05-14 15:31:00,
2013-05-14 11:46:00,58.1,27.0,30.10,NE,37,5.0,9.0,30,0.00,,,0.00,weatherlink.com 1.10,2013-05-14 15:46:00,
2013-05-14 12:01:00,58.5,28.0,30.09,NE,49,3.0,10.0,31,0.00,,,0.00,weatherlink.com 1.10,2013-05-14 16:01:00,
2013-05-14 12:16:00,58.8,27.0,30.09,NNW,344,2.0,6.0,30,0.00,,,0.00,weatherlink.com 1.10,2013-05-14 16:16:00,
2013-05-14 12:31:00,59.4,29.0,30.09,NE,37,3.0,9.0,31,0.00,,,0.00,weatherlink.com 1.10,2013-05-14 16:31:00,
2013-05-14 13:01:00,59.3,27.0,30.08,SSE,165,3.0,7.0,29,0.00,,,0.00,weatherlink.com 1.10,2013-05-14 17:01:00,
2013-05-14 13:16:00,60.1,26.0,30.09,ENE,65,1.0,7.0,27,0.00,,,0.00,weatherlink.com 1.10,2013-05-14 17:16:00,
2013-05-14 13:31:00,60.2,28.0,30.08,NNE,18,1.0,5.0,29,0.00,,,0.00,weatherlink.com 1.10,2013-05-14 17:31:00,
2013-05-14 13:46:00,61.2,25.0,30.07,SSE,152,3.0,8.0,25,0.00,,,0.00,weatherlink.com 1.10,2013-05-14 17:46:00,
2013-05-14 14:01:00,61.0,25.0,30.07,NE,44,2.0,5.0,25,0.00,,,0.00,weatherlink.com 1.10,2013-05-14 18:01:00,
2013-05-14 14:16:00,61.9,25.0,30.07,NE,56,1.0,8.0,24,0.00,,,0.00,weatherlink.com 1.10,2013-05-14 18:16:00,
2013-05-14 14:32:00,61.7,24.0,30.06,SSE,158,4.0,8.0,24,0.00,,,0.00,weatherlink.com 1.10,2013-05-14 18:32:00,
2013-05-14 14:47:00,62.4,25.0,30.06,North,353,0.0,8.0,24,0.00,,,0.00,weatherlink.com 1.10,2013-05-14 18:47:00,
2013-05-14 15:02:00,62.9,24.0,30.05,WNW,291,3.0,9.0,23,0.00,,,0.00,weatherlink.com 1.10,2013-05-14 19:02:00,
2013-05-14 15:17:00,63.6,22.0,30.05,NNE,25,1.0,7.0,20,0.00,,,0.00,weatherlink.com 1.10,2013-05-14 19:17:00,
2013-05-14 15:32:00,63.4,23.0,30.05,NE,53,2.0,6.0,21,0.00,,,0.00,weatherlink.com 1.10,2013-05-14 19:32:00,
2013-05-14 15:47:00,63.2,22.0,30.04,ENE,75,2.0,7.0,21,0.00,,,0.00,weatherlink.com 1.10,2013-05-14 19:47:00,
2013-05-14 16:02:00,63.4,22.0,30.04,NE,42,3.0,5.0,20,0.00,,,0.00,weatherlink.com 1.10,2013-05-14 20:02:00,
2013-05-14 16:17:00,63.3,21.0,30.03,NNE,21,4.0,8.0,20,0.00,,,0.00,weatherlink.com 1.10,2013-05-14 20:17:00,
2013-05-14 16:32:00,62.9,21.0,30.02,NNW,347,5.0,10.0,20,0.00,,,0.00,weatherlink.com 1.10,2013-05-14 20:32:00,
2013-05-14 16:47:00,63.1,21.0,30.02,NE,39,3.0,5.0,20,0.00,,,0.00,weatherlink.com 1.10,2013-05-14 20:47:00,
2013-05-14 17:02:00,62.7,21.0,30.02,ESE,107,2.0,7.0,20,0.00,,,0.00,weatherlink.com 1.10,2013-05-14 21:02:00,
2013-05-14 17:17:00,62.4,22.0,30.02,NNE,18,1.0,8.0,21,0.00,,,0.00,weatherlink.com 1.10,2013-05-14 21:17:00,
2013-05-14 17:32:00,62.4,21.0,30.02,NNW,337,5.0,9.0,20,0.00,,,0.00,weatherlink.com 1.10,2013-05-14 21:32:00,
2013-05-14 17:47:00,61.6,20.0,30.02,SE,139,1.0,3.0,20,0.00,,,0.00,weatherlink.com 1.10,2013-05-14 21:47:00,
2013-05-14 18:02:00,61.6,21.0,30.01,SSE,159,2.0,6.0,21,0.00,,,0.00,weatherlink.com 1.10,2013-05-14 22:02:00,
2013-05-14 18:17:00,61.1,21.0,30.01,ESE,115,0.0,5.0,21,0.00,,,0.00,weatherlink.com 1.10,2013-05-14 22:17:00,
2013-05-14 18:32:00,60.7,20.0,30.02,NE,53,0.0,5.0,21,0.00,,,0.00,weatherlink.com 1.10,2013-05-14 22:32:00,
2013-05-14 18:47:00,60.5,21.0,30.02,North,10,0.0,5.0,22,0.00,,,0.00,weatherlink.com 1.10,2013-05-14 22:47:00,
2013-05-14 19:02:00,60.4,21.0,30.02,ENE,73,2.0,4.0,22,0.00,,,0.00,weatherlink.com 1.10,2013-05-14 23:02:00,
2013-05-14 19:17:00,60.0,22.0,30.02,East,101,1.0,4.0,23,0.00,,,0.00,weatherlink.com 1.10,2013-05-14 23:17:00,
2013-05-14 19:32:00,59.6,22.0,30.02,North,1,2.0,4.0,23,0.00,,,0.00,weatherlink.com 1.10,2013-05-14 23:32:00,
2013-05-14 19:47:00,59.0,21.0,30.02,NNE,30,0.0,2.0,23,0.00,,,0.00,weatherlink.com 1.10,2013-05-14 23:47:00,
2013-05-14 20:02:00,58.4,22.0,30.02,East,92,0.0,1.0,24,0.00,,,0.00,weatherlink.com 1.10,2013-05-15 00:02:00,
2013-05-14 20:17:00,57.9,22.0,30.02,SE,141,0.0,2.0,25,0.00,,,0.00,weatherlink.com 1.10,2013-05-15 00:17:00,
2013-05-14 20:32:00,57.8,23.0,30.02,SSE,156,0.0,3.0,26,0.00,,,0.00,weatherlink.com 1.10,2013-05-15 00:32:00,
2013-05-14 20:47:00,57.8,25.0,30.02,ESE,116,0.0,3.0,28,0.00,,,0.00,weatherlink.com 1.10,2013-05-15 00:47:00,
2013-05-14 21:02:00,57.6,25.0,30.03,South,172,0.0,4.0,29,0.00,,,0.00,weatherlink.com 1.10,2013-05-15 01:02:00,
2013-05-14 21:17:00,57.4,26.0,30.03,SE,125,1.0,1.0,30,0.00,,,0.00,weatherlink.com 1.10,2013-05-15 01:17:00,
2013-05-14 21:32:00,57.3,26.0,30.04,SE,139,1.0,3.0,30,0.00,,,0.00,weatherlink.com 1.10,2013-05-15 01:32:00,
2013-05-14 21:47:00,57.1,27.0,30.04,SSE,150,0.0,2.0,31,0.00,,,0.00,weatherlink.com 1.10,2013-05-15 01:47:00,
2013-05-14 22:02:00,56.8,26.0,30.05,SSE,162,0.0,1.0,31,0.00,,,0.00,weatherlink.com 1.10,2013-05-15 02:02:00,
2013-05-14 22:17:00,56.0,27.0,30.05,SE,129,1.0,1.0,33,0.00,,,0.00,weatherlink.com 1.10,2013-05-15 02:17:00,
2013-05-14 22:32:00,55.9,27.0,30.05,SE,139,0.0,2.0,33,0.00,,,0.00,weatherlink.com 1.10,2013-05-15 02:32:00,
2013-05-14 22:47:00,56.0,28.0,30.05,ESE,123,2.0,3.0,34,0.00,,,0.00,weatherlink.com 1.10,2013-05-15 02:47:00,
2013-05-14 23:02:00,55.8,28.0,30.05,South,173,1.0,3.0,35,0.00,,,0.00,weatherlink.com 1.10,2013-05-15 03:02:00,
2013-05-14 23:17:00,55.6,29.0,30.05,SSE,167,1.0,4.0,36,0.00,,,0.00,weatherlink.com 1.10,2013-05-15 03:17:00,
2013-05-14 23:32:00,55.2,28.0,30.05,South,186,1.0,4.0,36,0.00,,,0.00,weatherlink.com 1.10,2013-05-15 03:32:00,
2013-05-14 23:47:00,54.5,29.0,30.05,South,173,0.0,0.0,38,0.00,,,0.00,weatherlink.com 1.10,2013-05-15 03:47:00,